This is the latest recevied weather packets stored in our database for station/object KJ4RDP-13. If no packets are shown the sender has not sent any weather packets the latest 10 day(s).
| Time | Temp. | Humidity | Pressure | Rain* | Wind** | Luminosity | Snow |
|---|---|---|---|---|---|---|---|
| 1777742785 | 13.89° C | 57% | 1012 hPa | 0 mm | - | 432 W/m² | - |
| 1777742481 | 14.44° C | 54% | 1012 hPa | 0 mm | - | 672 W/m² | - |
| 1777742177 | 14.44° C | 55% | 1012.3 hPa | 0 mm | - | 396 W/m² | - |
| 1777741874 | 15° C | 55% | 1012.3 hPa | 0 mm | - | 378 W/m² | - |
| 1777741571 | 14.44° C | 52% | 1012.3 hPa | 0 mm | - | 523 W/m² | - |
| 1777741268 | 13.89° C | 55% | 1012.3 hPa | 0 mm | - | 422 W/m² | - |
| 1777740964 | 13.89° C | 57% | 1012.8 hPa | 0 mm | - | 419 W/m² | - |
| 1777740662 | 13.89° C | 54% | 1012.8 hPa | 0 mm | - | 350 W/m² | - |
| 1777740358 | 14.44° C | 55% | 1012.8 hPa | 0 mm | - | 404 W/m² | - |
| 1777740055 | 13.89° C | 58% | 1012.8 hPa | 0 mm | - | 472 W/m² | - |
| 1777739751 | 13.33° C | 56% | 1012.8 hPa | 0 mm | - | 517 W/m² | - |
| 1777739448 | 13.33° C | 59% | 1012.8 hPa | 0 mm | - | 630 W/m² | - |
| 1777739144 | 12.22° C | 61% | 1013.1 hPa | 0 mm | - | 498 W/m² | - |
| 1777738842 | 12.22° C | 61% | 1013.1 hPa | 0 mm | - | 428 W/m² | - |
| 1777738538 | 11.67° C | 63% | 1013.1 hPa | 0 mm | - | 439 W/m² | - |
| 1777738236 | 11.67° C | 64% | 1012.8 hPa | 0 mm | - | 324 W/m² | - |
| 1777737934 | 11.11° C | 65% | 1013.1 hPa | 0 mm | - | 286 W/m² | - |
| 1777737632 | 10.56° C | 67% | 1013.5 hPa | 0 mm | - | 212 W/m² | - |
| 1777737330 | 10.56° C | 68% | 1013.5 hPa | 0 mm | - | 158 W/m² | - |
| 1777737027 | 10.56° C | 66% | 1013.5 hPa | 0 mm | - | 129 W/m² | - |
| 1777736723 | 10.56° C | 66% | 1013.5 hPa | 0 mm | - | 138 W/m² | - |
| 1777736095 | 10.56° C | 67% | 1013.5 hPa | 0 mm | - | 137 W/m² | - |
| 1777735792 | 10.56° C | 68% | 1013.5 hPa | 0 mm | - | 135 W/m² | - |
| 1777735490 | 10.56° C | 67% | 1013.5 hPa | 0 mm | - | 150 W/m² | - |
| 1777735187 | 10.56° C | 66% | 1013.5 hPa | 0 mm | - | 148 W/m² | - |
* Rain latest hour (hover to see other rain measurements)
** Current wind speed in m/s (hover to see current wind gust speed)